Weather reports worldwide

Advertisment
Capo Caccia, Italy (16522): temperature & dewpoint: 03.08.2020 22:00:00 - 09.08.2020 22:00:00 (CEST)Capo Caccia, Italy (16522): wind speed: 03.08.2020 22:00:00 - 09.08.2020 22:00:00 (CEST)Capo Caccia, Italy (16522): wind direction: 03.08.2020 22:00:00 - 09.08.2020 22:00:00 (CEST)Capo Caccia, Italy (16522): reduced air pressure: 03.08.2020 22:00:00 - 09.08.2020 22:00:00 (CEST)Capo Caccia, Italy (16522): visibility: 03.08.2020 22:00:00 - 09.08.2020 22:00:00 (CEST)Capo Caccia, Italy (16522): sunshine duration: 03.08.2020 22:00:00 - 09.08.2020 22:00:00 (CEST)
Date & Time tt [°C] td [°C] ff [km/h] ff [kn] dd ppp [hPa] vv [km] sd [min]
09.08.2020 22:00:00 - - - - - - - -
09.08.2020 21:00:00 28,0 24,2 13 7 NNE 1013,1 20 0
09.08.2020 20:00:00 28,0 18,1 15 8 NNE 1013,1 20 60
09.08.2020 19:00:00 29,0 16,5 13 7 N 1013,1 20 60
09.08.2020 18:00:00 28,6 18,7 22 12 NNW 1014,0 20 60
09.08.2020 17:00:00 27,0 19,9 22 12 NNW 1014,2 20 60
09.08.2020 16:00:00 27,2 21,2 22 12 NNW 1014,2 20 60
09.08.2020 15:00:00 26,8 23,5 18 10 NNW 1014,2 20 60
09.08.2020 14:00:00 25,0 23,2 16 9 NNW 1015,2 20 60
09.08.2020 13:00:00 26,4 24,6 15 8 NNW 1015,3 20 60
09.08.2020 12:00:00 30,4 20,3 11 6 NNW 1015,0 20 60
09.08.2020 11:00:00 29,8 19,8 21 11 NNE 1015,0 20 60
09.08.2020 10:00:00 27,0 21,5 16 9 NE 1015,2 20 60
09.08.2020 09:00:00 24,6 20,9 13 7 NNE 1015,4 20 60
09.08.2020 08:00:00 22,0 20,1 16 9 NE 1015,6 20 12
09.08.2020 07:00:00 22,0 20,3 18 10 NNE 1015,6 20 -
09.08.2020 06:00:00 22,2 21,0 11 6 NNE 1015,5 20 -
09.08.2020 05:00:00 22,6 20,9 9 5 NNE 1015,5 20 -
09.08.2020 04:00:00 23,0 22,2 13 7 N 1015,8 20 -
09.08.2020 03:00:00 23,4 21,9 11 6 NNW 1016,0 20 -
09.08.2020 02:00:00 23,4 21,7 13 7 N 1016,1 20 -
09.08.2020 01:00:00 23,4 17,8 15 8 NNW 1016,2 20 -
09.08.2020 00:00:00 23,4 19,8 16 9 NNE 1016,5 20 -
08.08.2020 23:00:00 24,0 19,3 9 5 NNE 1016,4 20 -
08.08.2020 22:00:00 24,2 19,5 21 11 NNE 1016,0 20 -
08.08.2020 21:00:00 24,8 20,7 21 11 N 1016,0 20 -
08.08.2020 20:00:00 25,0 19,2 24 13 NNW 1015,9 20 30
08.08.2020 19:00:00 26,2 22,1 16 9 NNW 1016,1 20 60
08.08.2020 18:00:00 26,4 19,0 13 7 NW 1016,2 20 60
08.08.2020 17:00:00 24,6 20,9 22 12 NW 1016,5 20 60
08.08.2020 16:00:00 26,4 18,8 18 10 NW 1016,9 20 60
08.08.2020 15:00:00 26,4 21,6 26 14 NW 1017,1 20 60
08.08.2020 14:00:00 26,4 21,4 15 8 NNW 1017,2 20 60
08.08.2020 13:00:00 26,4 23,1 16 9 NW 1017,2 20 60
08.08.2020 12:00:00 27,2 23,5 13 7 NW 1017,3 20 60
08.08.2020 11:00:00 27,4 21,9 13 7 NW 1017,5 20 60
08.08.2020 10:00:00 26,8 19,4 11 6 NE 1017,9 20 60
08.08.2020 09:00:00 25,0 21,7 13 7 NE 1018,1 18 60
08.08.2020 08:00:00 23,4 21,3 9 5 NNE 1017,9 18 24
08.08.2020 07:00:00 22,4 20,7 8 4 N 1017,9 15 0
08.08.2020 06:00:00 22,4 20,5 9 5 N 1017,8 15 -
08.08.2020 05:00:00 22,4 20,7 11 6 NNE 1017,7 15 -
08.08.2020 04:00:00 22,6 21,1 13 7 NNE 1017,7 18 -
08.08.2020 03:00:00 - - - - - - - -
08.08.2020 02:00:00 23,8 20,5 15 8 NNE 1017,6 18 -
08.08.2020 01:00:00 24,0 17,3 15 8 N 1017,5 18 -
08.08.2020 00:00:00 23,6 18,9 16 9 NE 1017,7 18 -
07.08.2020 23:00:00 23,8 18,7 18 10 NNE 1017,4 20 -
07.08.2020 22:00:00 24,2 17,9 21 11 NE 1017,0 20 -
07.08.2020 21:00:00 23,8 22,1 18 10 N 1016,7 20 0
07.08.2020 20:00:00 24,0 22,3 11 6 NNW 1016,7 20 60
07.08.2020 19:00:00 24,6 22,7 16 9 WNW 1016,7 25 60
07.08.2020 18:00:00 24,8 22,7 21 11 NW 1016,7 25 60
07.08.2020 17:00:00 25,0 22,5 21 11 WNW 1016,9 25 60
07.08.2020 16:00:00 25,2 20,7 24 13 WNW 1016,7 25 60
07.08.2020 15:00:00 25,4 20,9 21 11 WNW 1017,0 25 60
07.08.2020 14:00:00 24,6 22,5 21 11 WNW 1017,2 25 60
07.08.2020 13:00:00 24,6 22,3 18 10 WNW 1017,4 25 60
07.08.2020 12:00:00 24,8 22,7 16 9 NW 1017,7 25 60
07.08.2020 11:00:00 24,8 21,9 9 5 NW 1017,6 25 60
07.08.2020 10:00:00 24,8 21,1 8 4 NW 1017,6 20 60
07.08.2020 09:00:00 23,6 20,9 8 4 NE 1016,5 20 60
07.08.2020 08:00:00 22,0 19,5 9 5 N 1016,0 20 24
07.08.2020 07:00:00 20,6 19,8 8 4 NNE 1015,8 20 0
07.08.2020 06:00:00 20,6 19,8 8 4 NNE 1015,8 20 0
07.08.2020 05:00:00 20,6 19,8 13 7 NNE 1015,8 20 -
07.08.2020 04:00:00 21,2 20,4 13 7 NNE 1015,9 20 -
07.08.2020 03:00:00 22,0 21,3 0 0 N 1015,6 20 -
07.08.2020 02:00:00 22,0 21,7 16 9 NNE 1015,6 20 -
07.08.2020 01:00:00 22,2 21,5 15 8 N 1015,6 20 -
07.08.2020 00:00:00 22,4 20,7 13 7 N 1015,6 20 -
06.08.2020 23:00:00 22,6 21,9 18 10 N 1015,6 20 -
06.08.2020 22:00:00 23,2 20,5 16 9 NNW 1015,1 20 -
06.08.2020 21:00:00 23,4 17,6 21 11 NNW 1014,5 20 0
06.08.2020 20:00:00 24,6 20,9 22 12 N 1014,4 20 60
06.08.2020 19:00:00 26,0 14,8 22 12 NNW 1014,3 20 60
06.08.2020 18:00:00 25,0 15,4 28 15 NNW 1014,3 20 60
06.08.2020 17:00:00 25,0 22,5 26 14 NNW 1014,5 20 60
06.08.2020 16:00:00 25,0 22,7 24 13 NW 1014,3 20 60
06.08.2020 15:00:00 25,0 22,7 21 11 NW 1015,6 20 60
06.08.2020 14:00:00 25,0 22,5 16 9 WNW 1014,5 20 60
06.08.2020 13:00:00 25,0 21,7 18 10 WNW 1014,5 20 60
06.08.2020 12:00:00 25,0 21,7 21 11 WNW 1015,6 20 60
06.08.2020 11:00:00 26,0 21,0 9 5 WNW 1015,5 20 60
06.08.2020 10:00:00 25,0 15,4 8 4 NE 1014,3 20 60
06.08.2020 09:00:00 23,6 16,9 8 4 NNE 1013,8 20 60
06.08.2020 08:00:00 21,8 19,5 5 3 NE 1013,5 20 18
06.08.2020 07:00:00 21,2 20,4 8 4 N 1013,5 20 -
06.08.2020 06:00:00 21,0 20,2 11 6 NNW 1013,1 20 -
06.08.2020 05:00:00 21,0 21,0 13 7 N 1013,1 20 -
06.08.2020 04:00:00 21,2 20,9 15 8 N 1013,1 20 -
06.08.2020 03:00:00 20,8 18,7 13 7 NNW 1012,7 20 -
06.08.2020 02:00:00 21,8 21,5 11 6 NNW 1012,6 20 -
06.08.2020 01:00:00 21,6 21,4 13 7 NNW 1012,6 20 -
06.08.2020 00:00:00 21,8 21,6 13 7 NNW 1012,6 20 -
05.08.2020 23:00:00 25,4 18,6 11 6 NNW 1011,7 20 -
05.08.2020 22:00:00 22,4 20,3 9 5 NNW 1011,9 20 -
05.08.2020 21:00:00 22,6 19,8 15 8 NNW 1011,5 20 -
05.08.2020 20:00:00 22,8 18,8 9 5 NW 1011,2 20 60
05.08.2020 19:00:00 24,2 18,8 15 8 WNW 1011,1 20 60
05.08.2020 18:00:00 24,8 18,7 13 7 WNW 1011,0 20 60
05.08.2020 17:00:00 24,8 18,5 11 6 SSW 1011,2 20 60
05.08.2020 16:00:00 25,0 18,5 9 5 W 1011,2 20 60
05.08.2020 15:00:00 25,2 18,4 9 5 WSW 1011,2 20 60
05.08.2020 14:00:00 25,0 17,5 13 7 WNW 1011,2 20 60
05.08.2020 13:00:00 24,8 17,5 13 7 WSW 1011,3 20 60
05.08.2020 12:00:00 24,0 17,5 13 7 WSW 1011,1 20 60
05.08.2020 11:00:00 23,4 17,2 15 8 W 1010,6 20 60
05.08.2020 10:00:00 23,2 17,0 18 10 W 1010,7 20 60
05.08.2020 09:00:00 22,4 16,7 16 9 WNW 1010,4 20 60
05.08.2020 08:00:00 22,0 15,8 18 10 WNW 1010,5 20 18
05.08.2020 07:00:00 22,0 16,7 24 13 WNW 1010,0 20 0
05.08.2020 06:00:00 22,0 16,3 26 14 WNW 1009,6 20 -
05.08.2020 05:00:00 22,0 16,3 28 15 WNW 1009,6 20 -
05.08.2020 04:00:00 22,0 16,9 29 16 WNW 1010,0 20 -
05.08.2020 03:00:00 21,8 16,5 31 17 WNW 1010,3 20 -
05.08.2020 02:00:00 21,8 17,2 24 13 NW 1010,3 20 -
05.08.2020 01:00:00 21,8 16,5 29 16 WNW 1010,3 20 -
05.08.2020 00:00:00 21,8 15,2 26 14 NW 1010,3 20 -
04.08.2020 23:00:00 22,0 15,8 31 17 WNW 1010,5 20 -
04.08.2020 22:00:00 22,0 15,8 28 15 WNW 1010,5 20 -
04.08.2020 21:00:00 22,0 15,6 29 16 WNW 1009,6 20 0
04.08.2020 20:00:00 22,0 15,4 31 17 WNW 1009,6 20 60
04.08.2020 19:00:00 22,0 14,6 35 19 NW 1009,7 20 60
04.08.2020 18:00:00 21,8 14,9 39 21 WNW 1009,6 20 48
04.08.2020 17:00:00 21,8 14,9 42 23 WNW 1009,7 20 60
04.08.2020 16:00:00 21,8 14,9 48 26 W 1009,7 20 60
04.08.2020 15:00:00 22,6 13,7 41 22 W 1009,5 20 60
04.08.2020 14:00:00 22,6 14,4 37 20 W 1009,8 20 60
04.08.2020 13:00:00 22,4 13,7 37 20 WNW 1010,2 20 60
04.08.2020 12:00:00 22,4 14,3 39 21 W 1009,5 20 60
04.08.2020 11:00:00 22,0 13,9 39 21 WNW 1010,3 20 60
04.08.2020 10:00:00 22,4 14,3 46 25 WNW 1009,5 20 48
04.08.2020 09:00:00 22,0 13,4 39 21 NNW 1008,6 20 30
04.08.2020 08:00:00 22,0 14,4 41 22 NNW 1008,4 20 36
04.08.2020 07:00:00 22,8 14,4 41 22 WNW 1008,3 20 -
04.08.2020 06:00:00 23,0 14,8 44 24 WNW 1008,3 20 -
04.08.2020 05:00:00 23,0 15,8 48 26 NW 1008,3 20 -
04.08.2020 04:00:00 23,6 16,7 37 20 WNW 1008,5 20 -
04.08.2020 03:00:00 23,6 13,5 37 20 WNW 1008,6 20 -
04.08.2020 02:00:00 23,6 15,9 37 20 WNW 1009,4 20 -
04.08.2020 01:00:00 23,0 17,9 31 17 WNW 1009,8 20 -
04.08.2020 00:00:00 23,0 18,3 22 12 WNW 1010,0 20 -
03.08.2020 23:00:00 23,0 18,3 21 11 WNW 1009,4 20 -
03.08.2020 22:00:00 23,0 18,3 24 13 WNW 1010,5 20 -

tt = temperature
td = dewpoint
ff = wind speed
dd = wind direction
ppp = reduced air pressure
vv = visibility
sd = sunshine duration

Next stations